星链-11701 (STARLINK-11701)

导读 | 豆包AI

STARLINK-11701是美国太空探索技术公司星链卫星互联网项目的组网卫星,于2025年4月29日由美国发射升空,属于星链低轨星座部署的一部分。该卫星承担全球互联网覆盖任务,助力为偏远地区、移动场景提供低延迟宽带网络服务,进一步拓展星链星座的覆盖范围与服务能力。

基本信息
目录编号:
63760
目录名称:
STARLINK-11701
国际标识:
2025-089K
轨道中心:
EARTH
卫星名称:
星链-11701
卫星全名:
星链-11701 (STARLINK-11701)
卫星状态:
在轨 (已飞行368 天)
发射日期:
2025-04-29 UTC
国别 :
美国 (US)
星等 :
--
轨道信息
数据来源 国际轨道数据
星历时间: 2026-05-02T06:26:47+0800
12小时前
查看轨道信息
半长轴: 6734.399km
偏心率: 0.0004315
轨道倾角: 43.001°
近地点辐角 256.491°
升交点赤经 330.937°
平近点角 103.547°
近地点: 353.356km
远地点: 359.168km
周期: 91.666分钟
每日圈数: 15.709217
详细信息
固有亮度:
5
最大亮度:
2.5
卫星平台:
Starlink V1.0
覆盖范围:
全球
运营商:
太空探索技术公司
运营商所在国:
美国
制造商(研发单位):
太空探索技术公司
制造商所在国:
美国
使用方式:
暂无
卫星简介
Starlink 计划是 SpaceX 推出的全球卫星互联网项目,通过发射低轨道卫星,为全球尤其是偏远地区提供高速、低延迟的互联网服务。自 2019 年起,Starlink 已部署数千颗卫星,旨在缩小全球数字鸿沟,推动互联网普及。该项目还为军事、航空等行业提供通信支持,带来广泛经济效益。
2D轨道图
3D轨道图
轨道高度分析图
轨道倾角分析图
轨道综合分析图
查看轨道综合分析图